Location: Hradec Kralove
(50.2170°N, 15.8330°E)
Time: 23:09:35
(UTC+02:00)

CAS-4B - Pass Details

Date: 27 September 2024
Orbit: 453 x 469 km, 43.0° (Epoch: 05 October)

Event Time Altitude Azimuth Distance (km) Brightness Sun altitude
Exits shadow 04:46:25 14° 163° (SSE) 1,413 ? -20.3°
Maximum altitude 04:46:51 14° 156° (SSE) 1,403 ? -20.2°
Drops below altitude 10° 04:48:46 10° 124° (SE) 1,623 ? -19.9°
Sets 04:51:47 0° 98° (E) 2,507 ? -19.5°
